Preview of NWS' New Version of Forecast
This preview is not operational and should not be used for support decisions.

Terminal Aerodrome Forecast (TAF)

Issued by National Weather Service (NWS)

                            
000
FTUS42 KKEY 151145
TAFEYW
TAF
KEYW 151145Z 1512/1612 10010G17KT P6SM FEW025
     FM151800 10014G20KT P6SM FEW025 SCT050
     FM160200 10012KT P6SM FEW020=